QPF
0.00 0.00 0.00 0.00 0.00 0.00 0.00 0.00 0.00 0.00 0.00 0.00 0.00 0.00 0.00 0.00 0.00 0.00 0.00 0.00 0.00 0.00 0.00 0.00 0.00 0.00 0.00 0.01 0.01 0.01 0.01 0.01 0.02 0.02 0.02 0.04 0.06 0.07 0.05 0.06 0.08 0.07 0.07
0.00 0.00 0.00 0.00 0.00 0.00 0.00 0.00 0.00 0.00 0.00 0.00 0.00 0.00 0.00 0.00 0.00 0.00 0.00 0.00 0.00 0.00 0.00 0.00 0.00 0.00 0.00 0.01 0.01 0.01 0.01 0.01 0.02 0.01 0.02 0.04 0.06 0.07 0.06 0.05 0.06 0.08 0.07
0.00 0.00 0.00 0.00 0.00 0.00 0.00 0.00 0.00 0.00 0.00 0.00 0.00 0.00 0.00 0.00 0.00 0.00 0.00 0.00 0.00 0.00 0.00 0.00 0.00 0.00 0.01 0.01 0.01 0.01 0.02 0.03 0.02 0.01 0.02 0.03 0.04 0.05 0.05 0.06 0.07 0.07 0.08
0.00 0.01 0.01 0.00 0.00 0.00 0.00 0.00 0.00 0.00 0.00 0.00 0.00 0.00 0.00 0.00 0.00 0.00 0.00 0.00 0.00 0.00 0.00 0.00 0.00 0.00 0.01 0.01 0.01 0.01 0.01 0.03 0.03 0.03 0.03 0.03 0.04 0.03 0.03 0.05 0.05 0.05 0.06
0.00 0.00 0.01 0.00 0.00 0.00 0.00 0.00 0.00 0.00 0.00 0.00 0.00 0.00 0.00 0.00 0.00 0.00 0.00 0.00 0.00 0.00 0.00 0.00 0.00 0.00 0.00 0.00 0.01 0.01 0.01 0.01 0.03 0.03 0.03 0.03 0.03 0.03 0.02 0.03 0.04 0.04 0.04
0.00 0.00 0.00 0.00 0.00 0.00 0.00 0.00 0.00 0.00 0.00 0.00 0.00 0.00 0.00 0.00 0.00 0.00 0.00 0.00 0.00 0.00 0.00 0.00 0.00 0.00 0.00 0.00 0.01 0.02 0.01 0.01 0.02 0.02 0.02 0.02 0.03 0.02 0.01 0.02 0.03 0.03 0.04
0.00 0.00 0.00 0.00 0.00 0.00 0.00 0.00 0.00 0.00 0.00 0.00 0.00 0.00 0.00 0.00 0.00 0.00 0.00 0.00 0.00 0.00 0.00 0.00 0.00 0.00 0.00 0.00 0.01 0.01 0.02 0.01 0.02 0.02 0.02 0.02 0.02 0.03 0.01 0.02 0.02 0.03 0.04
0.00 0.00 0.00 0.00 0.00 0.00 0.00 0.00 0.00 0.00 0.00 0.00 0.00 0.00 0.00 0.00 0.00 0.00 0.00 0.00 0.00 0.00 0.00 0.00 0.00 0.00 0.00 0.00 0.00 0.01 0.01 0.01 0.01 0.02 0.03 0.03 0.04 0.03 0.02 0.02 0.02 0.02 0.01
0.00 0.00 0.00 0.00 0.00 0.00 0.00 0.00 0.00 0.00 0.00 0.00 0.00 0.00 0.00 0.00 0.00 0.00 0.00 0.00 0.00 0.00 0.00 0.00 0.00 0.00 0.00 0.00 0.00 0.00 0.00 0.01 0.01 0.02 0.03 0.04 0.03 0.02 0.01 0.01 0.02 0.03 0.02
0.00 0.00 0.00 0.00 0.00 0.00 0.00 0.00 0.00 0.00 0.00 0.00 0.00 0.00 0.00 0.00 0.00 0.00 0.00 0.00 0.00 0.00 0.00 0.00 0.00 0.00 0.00 0.00 0.00 0.00 0.00 0.01 0.02 0.01 0.02 0.02 0.01 0.01 0.01 0.01 0.02 0.03 0.03
0.00 0.00 0.00 0.00 0.00 0.00 0.00 0.00 0.00 0.00 0.00 0.00 0.00 0.00 0.00 0.00 0.00 0.00 0.00 0.00 0.00 0.00 0.00 0.00 0.00 0.00 0.00 0.00 0.00 0.00 0.00 0.00 0.01 0.01 0.01 0.01 0.01 0.01 0.01 0.01 0.02 0.03 0.03
0.00 0.00 0.00 0.00 0.00 0.00 0.00 0.00 0.00 0.00 0.00 0.00 0.00 0.00 0.00 0.00 0.00 0.00 0.00 0.00 0.00 0.00 0.00 0.00 0.00 0.00 0.00 0.00 0.00 0.00 0.00 0.00 0.00 0.00 0.00 0.00 0.00 0.01 0.01 0.01 0.01 0.02 0.02
0.00 0.00 0.00 0.00 0.00 0.00 0.00 0.00 0.00 0.00 0.00 0.00 0.00 0.00 0.00 0.00 0.00 0.00 0.00 0.00 0.00 0.00 0.00 0.00 0.00 0.00 0.00 0.00 0.00 0.00 0.00 0.00 0.00 0.00 0.00 0.00 0.01 0.01 0.01 0.01 0.01 0.01 0.01
0.00 0.00 0.00 0.00 0.00 0.00 0.00 0.00 0.00 0.00 0.00 0.00 0.00 0.00 0.00 0.00 0.00 0.00 0.00 0.00 0.00 0.00 0.00 0.00 0.00 0.00 0.00 0.00 0.00 0.00 0.00 0.00 0.00 0.00 0.01 0.01 0.00 0.01 0.01 0.00 0.00 0.00 0.00
0.00 0.00 0.00 0.00 0.00 0.00 0.00 0.00 0.00 0.00 0.00 0.00 0.00 0.00 0.00 0.00 0.00 0.00 0.00 0.00 0.00 0.00 0.00 0.00 0.00 0.00 0.00 0.00 0.00 0.00 0.00 0.00 0.00 0.00 0.00 0.00 0.00 0.00 0.01 0.01 0.00 0.00 0.01
0.00 0.00 0.00 0.00 0.00 0.00 0.00 0.00 0.00 0.00 0.00 0.00 0.00 0.00 0.00 0.00 0.00 0.00 0.00 0.00 0.00 0.00 0.00 0.00 0.00 0.00 0.00 0.00 0.00 0.00 0.00 0.00 0.00 0.00 0.00 0.00 0.00 0.00 0.00 0.00 0.00 0.01 0.01
0.00 0.00 0.00 0.00 0.00 0.00 0.00 0.00 0.00 0.00 0.00 0.00 0.00 0.00 0.00 0.00 0.00 0.00 0.00 0.00 0.00 0.00 0.00 0.00 0.00 0.00 0.00 0.00 0.00 0.00 0.00 0.00 0.00 0.00 0.00 0.00 0.00 0.00 0.00 0.01 0.01 0.00 0.01
0.00 0.00 0.00 0.00 0.00 0.00 0.00 0.00 0.00 0.00 0.00 0.00 0.00 0.00 0.00 0.00 0.00 0.00 0.00 0.00 0.00 0.00 0.00 0.00 0.00 0.00 0.00 0.00 0.00 0.00 0.00 0.00 0.00 0.00 0.00 0.00 0.00 0.00 0.00 0.00 0.00 0.01 0.00
0.00 0.00 0.00 0.00 0.00 0.00 0.00 0.00 0.00 0.00 0.00 0.00 0.00 0.00 0.00 0.00 0.00 0.00 0.00 0.00 0.00 0.00 0.00 0.00 0.00 0.00 0.00 0.00 0.00 0.00 0.00 0.00 0.00 0.00 0.00 0.00 0.00 0.00 0.00 0.00 0.00 0.01 0.00
0.00 0.00 0.00 0.00 0.00 0.00 0.00 0.00 0.00 0.00 0.00 0.00 0.00 0.00 0.00 0.00 0.00 0.00 0.00 0.00 0.00 0.00 0.00 0.00 0.00 0.00 0.00 0.00 0.00 0.00 0.00 0.00 0.00 0.00 0.00 0.00 0.00 0.00 0.00 0.00 0.00 0.01 0.00
0.00 0.00 0.00 0.00 0.00 0.00 0.00 0.00 0.00 0.00 0.00 0.00 0.00 0.00 0.00 0.00 0.00 0.00 0.00 0.00 0.00 0.00 0.00 0.00 0.00 0.00 0.00 0.00 0.00 0.00 0.00 0.00 0.00 0.00 0.00 0.00 0.00 0.00 0.00 0.00 0.00 0.01 0.01
0.00 0.00 0.00 0.00 0.00 0.00 0.00 0.00 0.00 0.00 0.00 0.00 0.00 0.00 0.00 0.00 0.00 0.00 0.00 0.00 0.00 0.00 0.00 0.00 0.00 0.00 0.00 0.00 0.00 0.00 0.00 0.00 0.00 0.00 0.00 0.00 0.00 0.00 0.00 0.00 0.00 0.00 0.01
0.00 0.00 0.00 0.00 0.00 0.00 0.00 0.00 0.00 0.00 0.00 0.00 0.00 0.00 0.00 0.00 0.00 0.00 0.00 0.00 0.00 0.00 0.00 0.00 0.00 0.00 0.00 0.00 0.00 0.00 0.00 0.00 0.00 0.00 0.00 0.00 0.00 0.00 0.00 0.00 0.00 0.00 0.00
0.00 0.00 0.00 0.00 0.00 0.00 0.00 0.00 0.00 0.00 0.00 0.00 0.00 0.00 0.00 0.00 0.00 0.00 0.00 0.00 0.00 0.00 0.00 0.00 0.00 0.00 0.00 0.00 0.00 0.00 0.00 0.00 0.00 0.00 0.00 0.00 0.00 0.00 0.00 0.00 0.00 0.00 0.00
0.00 0.00 0.00 0.00 0.00 0.00 0.00 0.00 0.00 0.00 0.00 0.00 0.00 0.00 0.00 0.00 0.00 0.00 0.00 0.00 0.01 0.01 0.01 0.01 0.00 0.00 0.00 0.00 0.00 0.00 0.00 0.00 0.00 0.00 0.00 0.00 0.00 0.00 0.00 0.00 0.00 0.00 0.00
0.00 0.00 0.00 0.00 0.00 0.00 0.00 0.00 0.00 0.00 0.00 0.00 0.00 0.00 0.00 0.00 0.00 0.00 0.00 0.01 0.01 0.01 0.01 0.01 0.01 0.00 0.00 0.00 0.00 0.00 0.00 0.00 0.00 0.00 0.00 0.00 0.00 0.00 0.00 0.00 0.00 0.00 0.00
MSLP
1011.83 1011.95 1012.09 1012.24 1012.41 1012.59 1012.80 1013.05 1013.36 1013.71 1014.09 1014.46 1014.79 1015.06 1015.24 1015.33 1015.33 1015.27 1015.19 1015.11 1015.07 1015.08 1015.12 1015.20 1015.29 1015.36 1015.38 1015.34 1015.23 1015.05 1014.83 1014.57 1014.29 1014.02 1013.76 1013.52 1013.30 1013.10 1012.91 1012.73 1012.57 1012.43 1012.31
1011.52 1011.64 1011.79 1011.95 1012.12 1012.30 1012.51 1012.77 1013.10 1013.48 1013.91 1014.35 1014.74 1015.07 1015.29 1015.40 1015.41 1015.34 1015.24 1015.15 1015.10 1015.11 1015.17 1015.29 1015.41 1015.52 1015.58 1015.56 1015.47 1015.30 1015.07 1014.81 1014.55 1014.30 1014.07 1013.86 1013.68 1013.51 1013.35 1013.18 1013.02 1012.86 1012.70
1011.17 1011.28 1011.43 1011.59 1011.76 1011.95 1012.16 1012.44 1012.79 1013.21 1013.68 1014.17 1014.62 1014.99 1015.26 1015.39 1015.41 1015.35 1015.24 1015.15 1015.10 1015.11 1015.20 1015.35 1015.51 1015.65 1015.74 1015.75 1015.67 1015.52 1015.31 1015.08 1014.84 1014.62 1014.44 1014.28 1014.15 1014.03 1013.90 1013.76 1013.60 1013.42 1013.23
1010.79 1010.88 1011.03 1011.20 1011.38 1011.57 1011.80 1012.09 1012.46 1012.91 1013.42 1013.94 1014.44 1014.85 1015.15 1015.30 1015.34 1015.28 1015.19 1015.10 1015.05 1015.09 1015.20 1015.36 1015.55 1015.73 1015.85 1015.88 1015.84 1015.71 1015.53 1015.33 1015.14 1014.98 1014.85 1014.76 1014.69 1014.62 1014.53 1014.41 1014.25 1014.06 1013.84
1010.43 1010.50 1010.64 1010.81 1011.00 1011.21 1011.45 1011.75 1012.14 1012.61 1013.14 1013.69 1014.21 1014.65 1014.97 1015.15 1015.20 1015.16 1015.07 1014.99 1014.97 1015.01 1015.14 1015.32 1015.54 1015.73 1015.88 1015.94 1015.93 1015.84 1015.71 1015.55 1015.42 1015.32 1015.26 1015.23 1015.23 1015.21 1015.16 1015.07 1014.91 1014.71 1014.46
1010.13 1010.17 1010.31 1010.48 1010.67 1010.89 1011.14 1011.45 1011.84 1012.32 1012.85 1013.41 1013.94 1014.39 1014.73 1014.92 1015.00 1014.98 1014.91 1014.84 1014.83 1014.89 1015.02 1015.22 1015.45 1015.66 1015.82 1015.92 1015.94 1015.89 1015.81 1015.72 1015.64 1015.60 1015.61 1015.64 1015.69 1015.72 1015.72 1015.64 1015.50 1015.30 1015.04
1009.94 1009.95 1010.07 1010.23 1010.42 1010.63 1010.88 1011.18 1011.56 1012.03 1012.55 1013.10 1013.63 1014.08 1014.42 1014.64 1014.73 1014.74 1014.69 1014.65 1014.65 1014.72 1014.86 1015.06 1015.28 1015.50 1015.68 1015.80 1015.86 1015.86 1015.83 1015.79 1015.77 1015.79 1015.85 1015.94 1016.03 1016.10 1016.13 1016.08 1015.97 1015.78 1015.52
1009.88 1009.86 1009.94 1010.08 1010.25 1010.43 1010.66 1010.94 1011.29 1011.73 1012.22 1012.75 1013.26 1013.71 1014.06 1014.29 1014.41 1014.44 1014.43 1014.41 1014.43 1014.50 1014.64 1014.84 1015.06 1015.28 1015.47 1015.61 1015.70 1015.74 1015.75 1015.77 1015.80 1015.87 1015.97 1016.09 1016.21 1016.31 1016.37 1016.35 1016.27 1016.11 1015.88
1009.97 1009.90 1009.94 1010.04 1010.16 1010.30 1010.48 1010.71 1011.02 1011.40 1011.85 1012.34 1012.82 1013.26 1013.62 1013.88 1014.03 1014.10 1014.12 1014.13 1014.17 1014.25 1014.39 1014.58 1014.80 1015.01 1015.21 1015.36 1015.47 1015.55 1015.60 1015.66 1015.73 1015.83 1015.95 1016.09 1016.23 1016.35 1016.43 1016.45 1016.40 1016.29 1016.11
1010.22 1010.10 1010.08 1010.11 1010.16 1010.23 1010.34 1010.49 1010.73 1011.04 1011.43 1011.87 1012.33 1012.75 1013.11 1013.39 1013.58 1013.69 1013.76 1013.81 1013.87 1013.97 1014.11 1014.29 1014.50 1014.71 1014.90 1015.07 1015.20 1015.31 1015.39 1015.48 1015.57 1015.69 1015.82 1015.97 1016.12 1016.24 1016.34 1016.39 1016.39 1016.33 1016.23
1010.64 1010.46 1010.36 1010.30 1010.26 1010.24 1010.24 1010.31 1010.45 1010.68 1010.99 1011.37 1011.78 1012.18 1012.54 1012.84 1013.07 1013.22 1013.34 1013.43 1013.52 1013.64 1013.79 1013.96 1014.17 1014.37 1014.57 1014.75 1014.90 1015.03 1015.14 1015.24 1015.35 1015.48 1015.61 1015.76 1015.90 1016.03 1016.14 1016.22 1016.26 1016.27 1016.24
1011.22 1010.97 1010.79 1010.62 1010.47 1010.33 1010.23 1010.18 1010.21 1010.34 1010.57 1010.87 1011.21 1011.58 1011.93 1012.23 1012.49 1012.68 1012.84 1012.97 1013.10 1013.24 1013.40 1013.59 1013.79 1013.99 1014.20 1014.39 1014.56 1014.71 1014.84 1014.96 1015.08 1015.21 1015.34 1015.47 1015.60 1015.73 1015.86 1015.96 1016.05 1016.12 1016.16
1011.95 1011.64 1011.35 1011.08 1010.81 1010.55 1010.32 1010.15 1010.06 1010.08 1010.19 1010.40 1010.67 1010.98 1011.29 1011.59 1011.85 1012.07 1012.26 1012.43 1012.59 1012.75 1012.93 1013.13 1013.34 1013.55 1013.77 1013.97 1014.16 1014.33 1014.48 1014.62 1014.75 1014.88 1015.00 1015.12 1015.25 1015.38 1015.51 1015.64 1015.77 1015.89 1016.00
1012.81 1012.43 1012.05 1011.67 1011.28 1010.89 1010.54 1010.24 1010.03 1009.92 1009.92 1010.01 1010.18 1010.41 1010.66 1010.92 1011.17 1011.39 1011.59 1011.78 1011.97 1012.16 1012.36 1012.57 1012.79 1013.02 1013.25 1013.47 1013.68 1013.87 1014.04 1014.19 1014.33 1014.46 1014.58 1014.70 1014.82 1014.95 1015.10 1015.25 1015.41 1015.58 1015.74
1013.73 1013.29 1012.84 1012.36 1011.86 1011.36 1010.89 1010.47 1010.14 1009.90 1009.77 1009.73 1009.79 1009.91 1010.07 1010.26 1010.45 1010.65 1010.84 1011.03 1011.23 1011.44 1011.66 1011.89 1012.12 1012.37 1012.61 1012.85 1013.08 1013.28 1013.47 1013.64 1013.79 1013.92 1014.05 1014.17 1014.30 1014.44 1014.59 1014.76 1014.96 1015.16 1015.36
1014.67 1014.18 1013.65 1013.09 1012.51 1011.92 1011.35 1010.83 1010.38 1010.02 1009.75 1009.58 1009.49 1009.48 1009.53 1009.61 1009.73 1009.87 1010.03 1010.20 1010.39 1010.60 1010.83 1011.07 1011.32 1011.58 1011.84 1012.09 1012.33 1012.55 1012.76 1012.94 1013.11 1013.26 1013.40 1013.53 1013.67 1013.82 1013.99 1014.18 1014.39 1014.62 1014.86
1015.52 1015.00 1014.43 1013.82 1013.18 1012.52 1011.88 1011.28 1010.73 1010.25 1009.86 1009.54 1009.31 1009.15 1009.05 1009.01 1009.03 1009.08 1009.18 1009.31 1009.47 1009.67 1009.89 1010.13 1010.39 1010.66 1010.93 1011.19 1011.44 1011.68 1011.90 1012.10 1012.29 1012.46 1012.61 1012.77 1012.92 1013.09 1013.28 1013.49 1013.72 1013.98 1014.24
1016.23 1015.70 1015.11 1014.47 1013.80 1013.11 1012.43 1011.76 1011.14 1010.57 1010.05 1009.60 1009.22 1008.91 1008.66 1008.48 1008.36 1008.31 1008.32 1008.39 1008.51 1008.67 1008.87 1009.10 1009.35 1009.62 1009.89 1010.16 1010.42 1010.67 1010.91 1011.14 1011.35 1011.54 1011.73 1011.91 1012.09 1012.29 1012.50 1012.73 1012.98 1013.25 1013.53
1016.76 1016.22 1015.63 1014.99 1014.32 1013.63 1012.93 1012.23 1011.56 1010.91 1010.29 1009.72 1009.20 1008.74 1008.35 1008.02 1007.77 1007.60 1007.50 1007.48 1007.53 1007.64 1007.80 1008.00 1008.24 1008.49 1008.76 1009.03 1009.30 1009.57 1009.84 1010.09 1010.34 1010.57 1010.79 1011.01 1011.23 1011.45 1011.68 1011.94 1012.20 1012.49 1012.79
1017.08 1016.56 1015.99 1015.37 1014.72 1014.04 1013.35 1012.64 1011.93 1011.23 1010.54 1009.87 1009.23 1008.64 1008.10 1007.64 1007.25 1006.95 1006.74 1006.61 1006.58 1006.61 1006.71 1006.87 1007.07 1007.30 1007.56 1007.84 1008.13 1008.42 1008.72 1009.02 1009.31 1009.59 1009.87 1010.13 1010.39 1010.64 1010.90 1011.17 1011.46 1011.75 1012.06
1017.23 1016.73 1016.19 1015.60 1014.98 1014.33 1013.66 1012.96 1012.24 1011.50 1010.76 1010.01 1009.28 1008.57 1007.91 1007.32 1006.80 1006.37 1006.04 1005.80 1005.66 1005.60 1005.62 1005.72 1005.87 1006.08 1006.32 1006.60 1006.91 1007.25 1007.59 1007.95 1008.30 1008.65 1008.99 1009.31 1009.61 1009.91 1010.20 1010.48 1010.78 1011.08 1011.40
1017.25 1016.78 1016.26 1015.71 1015.12 1014.50 1013.85 1013.17 1012.45 1011.69 1010.91 1010.11 1009.31 1008.51 1007.75 1007.05 1006.41 1005.86 1005.40 1005.04 1004.78 1004.61 1004.54 1004.56 1004.65 1004.82 1005.06 1005.35 1005.69 1006.07 1006.48 1006.91 1007.34 1007.76 1008.17 1008.56 1008.92 1009.26 1009.58 1009.89 1010.19 1010.51 1010.83
1017.20 1016.74 1016.24 1015.72 1015.16 1014.56 1013.93 1013.25 1012.53 1011.77 1010.97 1010.13 1009.28 1008.43 1007.59 1006.79 1006.05 1005.39 1004.81 1004.32 1003.93 1003.65 1003.47 1003.40 1003.43 1003.55 1003.77 1004.07 1004.45 1004.89 1005.37 1005.88 1006.40 1006.92 1007.41 1007.87 1008.29 1008.67 1009.03 1009.37 1009.69 1010.02 1010.35
1017.09 1016.64 1016.16 1015.64 1015.09 1014.51 1013.88 1013.21 1012.49 1011.72 1010.90 1010.05 1009.17 1008.28 1007.39 1006.53 1005.70 1004.94 1004.24 1003.63 1003.12 1002.71 1002.42 1002.25 1002.20 1002.28 1002.48 1002.79 1003.21 1003.71 1004.27 1004.87 1005.48 1006.08 1006.66 1007.19 1007.68 1008.12 1008.52 1008.88 1009.24 1009.59 1009.94
1016.95 1016.50 1016.01 1015.49 1014.93 1014.33 1013.69 1013.01 1012.28 1011.51 1010.69 1009.83 1008.95 1008.04 1007.13 1006.22 1005.34 1004.49 1003.70 1002.97 1002.34 1001.81 1001.40 1001.13 1001.00 1001.03 1001.21 1001.52 1001.97 1002.52 1003.16 1003.84 1004.54 1005.22 1005.88 1006.48 1007.03 1007.53 1007.97 1008.38 1008.77 1009.16 1009.56
1016.76 1016.29 1015.78 1015.23 1014.64 1014.01 1013.35 1012.64 1011.90 1011.12 1010.30 1009.46 1008.59 1007.69 1006.78 1005.85 1004.94 1004.03 1003.17 1002.35 1001.61 1000.97 1000.46 1000.09 999.88 999.85 1000.00 1000.31 1000.78 1001.37 1002.05 1002.79 1003.56 1004.32 1005.03 1005.70 1006.30 1006.84 1007.34 1007.80 1008.24 1008.69 1009.14
Thickness
5758 5757 5756 5753 5749 5746 5743 5740 5736 5733 5729 5724 5720 5717 5714 5713 5710 5708 5705 5702 5698 5695 5691 5687 5684 5681 5677 5674 5673 5672 5671 5671 5672 5672 5673 5677 5682 5685 5689 5694 5699 5704 5709
5754 5754 5753 5751 5748 5745 5741 5738 5735 5732 5728 5725 5721 5717 5714 5711 5708 5706 5703 5700 5697 5693 5690 5685 5682 5679 5675 5673 5671 5669 5667 5667 5668 5668 5667 5668 5672 5679 5685 5689 5694 5699 5704
5752 5752 5751 5749 5747 5744 5741 5739 5735 5731 5727 5723 5719 5715 5711 5709 5706 5704 5701 5699 5695 5692 5688 5684 5681 5677 5674 5670 5668 5667 5665 5664 5665 5666 5665 5664 5664 5669 5677 5683 5688 5693 5699
5754 5753 5751 5749 5747 5746 5742 5739 5734 5730 5726 5722 5718 5714 5710 5706 5704 5702 5699 5697 5695 5691 5687 5684 5680 5676 5673 5670 5668 5666 5664 5663 5662 5663 5664 5664 5666 5666 5668 5676 5682 5688 5693
5754 5753 5753 5751 5749 5746 5741 5738 5733 5729 5725 5722 5718 5714 5710 5706 5704 5701 5699 5696 5693 5690 5687 5683 5679 5676 5673 5670 5668 5666 5664 5663 5661 5661 5662 5663 5664 5665 5666 5668 5674 5681 5687
5753 5753 5753 5750 5747 5743 5740 5736 5731 5728 5725 5721 5717 5714 5710 5706 5703 5700 5697 5695 5692 5689 5687 5683 5679 5676 5673 5670 5668 5666 5664 5663 5662 5661 5661 5661 5662 5663 5664 5665 5669 5673 5681
5750 5749 5748 5746 5744 5741 5738 5734 5730 5726 5723 5720 5716 5714 5710 5707 5703 5700 5697 5694 5690 5688 5686 5683 5680 5676 5674 5671 5669 5666 5665 5663 5662 5661 5661 5661 5662 5663 5664 5665 5666 5669 5675
5746 5746 5746 5744 5743 5740 5737 5733 5729 5726 5723 5719 5716 5714 5710 5707 5704 5701 5698 5694 5691 5689 5687 5684 5680 5677 5675 5672 5669 5667 5665 5663 5662 5662 5661 5661 5661 5663 5665 5665 5666 5667 5670
5743 5744 5744 5743 5741 5739 5737 5734 5730 5726 5723 5720 5717 5713 5710 5707 5704 5702 5699 5696 5693 5691 5688 5685 5681 5678 5675 5673 5670 5667 5665 5664 5662 5661 5660 5660 5661 5663 5664 5666 5667 5667 5666
5740 5741 5741 5740 5739 5738 5735 5732 5729 5726 5723 5720 5717 5714 5711 5708 5705 5702 5699 5696 5694 5691 5688 5685 5682 5679 5676 5673 5670 5668 5666 5664 5662 5661 5660 5660 5660 5661 5663 5664 5666 5668 5668
5735 5736 5737 5737 5737 5735 5732 5729 5726 5723 5720 5718 5715 5713 5710 5708 5705 5702 5700 5697 5695 5692 5689 5686 5683 5680 5677 5674 5670 5668 5666 5664 5662 5661 5660 5659 5659 5659 5660 5662 5663 5665 5667
5730 5732 5733 5733 5732 5730 5728 5726 5724 5722 5720 5718 5714 5711 5709 5706 5703 5701 5700 5697 5695 5693 5690 5687 5683 5681 5678 5674 5671 5669 5667 5664 5662 5661 5659 5658 5658 5658 5658 5659 5661 5662 5664
5726 5727 5727 5727 5726 5726 5725 5724 5722 5721 5720 5717 5713 5710 5707 5705 5703 5702 5700 5697 5695 5692 5690 5687 5684 5681 5679 5675 5673 5670 5667 5665 5663 5661 5659 5658 5657 5657 5657 5658 5658 5660 5662
5718 5720 5719 5720 5721 5721 5721 5720 5720 5719 5718 5715 5712 5709 5708 5706 5704 5702 5699 5697 5694 5692 5689 5687 5685 5682 5679 5676 5674 5671 5668 5666 5664 5662 5660 5658 5657 5657 5656 5656 5656 5657 5657
5712 5712 5713 5714 5715 5716 5717 5717 5717 5716 5716 5713 5711 5710 5708 5705 5703 5700 5698 5696 5693 5692 5689 5686 5684 5681 5679 5677 5674 5671 5669 5666 5664 5662 5660 5659 5659 5658 5657 5656 5655 5654 5653
5703 5705 5707 5708 5709 5710 5711 5712 5713 5713 5712 5710 5709 5708 5705 5703 5700 5698 5696 5693 5691 5689 5687 5685 5683 5680 5680 5679 5677 5673 5669 5666 5664 5662 5661 5659 5659 5659 5658 5658 5657 5655 5652
5694 5696 5698 5700 5702 5704 5706 5707 5709 5709 5707 5706 5706 5704 5702 5700 5698 5696 5693 5691 5689 5687 5685 5683 5681 5680 5679 5679 5677 5674 5670 5666 5664 5662 5660 5660 5660 5658 5656 5656 5656 5655 5654
5687 5688 5690 5692 5695 5698 5700 5702 5703 5702 5701 5700 5700 5699 5697 5696 5695 5693 5691 5690 5687 5685 5684 5682 5681 5679 5679 5678 5677 5674 5670 5666 5664 5662 5660 5658 5658 5657 5656 5654 5652 5651 5651
5678 5679 5681 5683 5686 5688 5691 5693 5693 5693 5693 5693 5693 5693 5693 5692 5690 5689 5689 5687 5685 5683 5682 5681 5679 5678 5677 5677 5675 5673 5668 5665 5663 5662 5660 5658 5657 5657 5656 5652 5650 5648 5648
5671 5672 5673 5674 5675 5677 5679 5680 5681 5681 5682 5685 5686 5687 5686 5686 5686 5686 5686 5684 5682 5682 5680 5679 5678 5677 5676 5676 5674 5672 5666 5663 5661 5660 5659 5659 5657 5657 5655 5651 5649 5646 5646
5662 5662 5662 5662 5662 5664 5665 5666 5667 5669 5672 5675 5677 5678 5678 5679 5680 5680 5680 5679 5678 5677 5675 5675 5675 5674 5674 5673 5672 5670 5665 5663 5660 5658 5657 5657 5657 5656 5654 5651 5648 5648 5646
5652 5652 5651 5650 5651 5651 5651 5652 5653 5657 5661 5664 5666 5667 5669 5670 5673 5671 5672 5671 5670 5669 5669 5669 5669 5669 5669 5669 5669 5668 5666 5663 5659 5658 5657 5656 5655 5654 5652 5649 5647 5646 5643
5640 5639 5638 5638 5638 5638 5637 5637 5641 5644 5646 5649 5651 5655 5657 5659 5661 5662 5662 5662 5661 5662 5663 5663 5664 5665 5664 5664 5665 5664 5663 5661 5657 5656 5655 5653 5652 5649 5647 5646 5644 5641 5638
5627 5626 5625 5624 5624 5624 5624 5624 5626 5628 5630 5633 5636 5640 5643 5646 5648 5650 5652 5652 5653 5654 5656 5657 5659 5660 5659 5658 5658 5658 5657 5656 5653 5651 5649 5648 5645 5643 5641 5639 5638 5636 5634
5613 5611 5609 5608 5609 5609 5609 5609 5610 5611 5613 5616 5620 5623 5627 5630 5633 5637 5640 5643 5648 5650 5652 5654 5655 5654 5655 5659 5658 5655 5652 5651 5648 5643 5640 5638 5636 5634 5632 5631 5630 5628 5627
5598 5596 5595 5593 5593 5592 5592 5592 5592 5593 5593 5597 5601 5605 5608 5612 5616 5620 5626 5631 5635 5640 5645 5649 5650 5652 5655 5655 5652 5651 5649 5646 5643 5638 5635 5633 5632 5630 5628 5626 5623 5621 5620